カタログに戻る

METEOR 2-17 DEB

運用中PO
NORAD 31400·DEBRIS·🇷🇺 Russia

打ち上げ Jan 30, 1988 から Plesetsk Cosmodrome

Loading…

次のパス (今後24時間)

TLE

古いSource: Space-Track

元期: Sep 2, 2026, 12:24 UTC

1 31400U 88005V   26245.51715852  .00003760  00000-0  19071-2 0  9998
2 31400  82.5293 173.9369 0013246 353.5768   6.5238 14.15745055632293

AllMySatでMETEOR 2-17 DEBをリアルタイム追跡

Download on the App Store